星链-1364 (STARLINK-1364 )

导读

STARLINK-1364是美国太空探索技术公司(SpaceX)星链星座的成员,于2020年4月22日由猎鹰9号火箭发射升空。它属于星链低轨互联网卫星网络,主要为全球提供高速宽带互联网服务,工作在近地轨道,助力实现全球网络覆盖,是星链大规模组网进程中的一颗组网卫星。

基本信息
目录编号:
45589
目录名称:
STARLINK-1364
国际标识:
2020-025BL
轨道中心:
EARTH
卫星名称:
星链-1364
卫星全名:
星链-1364 (STARLINK-1364 )
卫星状态:
在轨 (已飞行2333 天)
发射日期:
2020-04-22 UTC
国别 :
美国 (US)
星等 :
--
该卫星已列入 空间交会检测服务 Space Conjunction Data Service (SCDS) ,当前飞行风险评估等级: 无高风险
轨道信息
数据来源 国际轨道数据
星历时间: 2026-09-08T19:12:02+0800
3天前
查看轨道信息
半长轴: 6705.014km
偏心率: 0.0004668
轨道倾角: 53.033°
近地点辐角 46.289°
升交点赤经 243.940°
平近点角 313.852°
近地点: 323.747km
远地点: 330.007km
周期: 91.067分钟
每日圈数: 15.812598
详细信息
固有亮度:
5
最大亮度:
2.5
卫星平台:
Starlink V1.0
覆盖范围:
全球
运营商:
太空探索技术公司
运营商所在国:
美国
制造商(研发单位):
太空探索技术公司
制造商所在国:
美国
使用方式:
暂无
卫星简介
星链(Starlink)计划是由太空探索技术公司(SpaceX)提出的一个巨型低轨卫星互联网星座项目,计划在2019年至2024年间在太空搭建由约1.2万颗卫星组成的“星链”网络,其中1584颗将部署在地球上空550千米处的近地轨道,并从2020年开始工作。该卫星仍在工作。
2D轨道图
3D轨道图
轨道高度分析图
轨道倾角分析图
轨道综合分析图
查看轨道综合分析图
与全量物体交会距离演化趋势
与全量物体交会风险概率演化趋势